Regional Weather Roundup
Issued by NWS Charleston, SC

Current Version | Previous Version | Graphics & Text | Print | Product List | Glossary On
Versions: 1 2 3 4 5 6 7 8 9 10 11 12 13 14 15 16 17 18 19 20 21 22 23 24 25 26 27 28 29 30 31 32 33 34 35 36 37 38 39 40 41 42 43 44 45 46 47 48 49 50
000
ASUS42 KCHS 301710
RWRCHS
REGIONAL WEATHER ROUNDUP
NATIONAL WEATHER SERVICE CHARLESTON SC
100 PM EDT SAT AUG 30 2014

NOTE: "FAIR" INDICATES FEW OR NO CLOUDS BELOW 12,000 FEET WITH NO
SIGNIFICANT WEATHER AND/OR OBSTRUCTIONS TO VISIBILITY.

NOT ALL STATIONS ARE QUALITY CONTROLLED BY THE NATIONAL
WEATHER SERVICE. USE DATA WITH CAUTION...ESPECIALLY
DEWPOINT OBSERVATIONS.

SCZ027-030-031-034>040-042>050-301800-
...SOUTH CAROLINA...

CITY           SKY/WX    TMP DP  RH WIND       PRES   REMARKS
N CHARLESTON   PTSUNNY   87  70  56 SE9       30.18F HX  92
WATERFRONT PRK   N/A     84 N/A N/A E15         N/A
FORT JOHNSON   NOT AVBL
MOUNT PLEASANT FAIR      88  75  66 SE7       30.18S HX  97
JOHNS ISLAND   PTSUNNY   84  77  79 E9        30.18F HX  94
PINOPOLIS        N/A     86  73  66 N6        30.09F HX  93
MONCKS CORNER    N/A     90  73  58 E6        30.17F HX  98
SUMMERVILLE    FAIR      90  72  55 CALM      30.17F HX  96
BEAUFORT MCAS  MOSUNNY   91  72  53 S3        30.16F HX  98
BEAUFORT ARPT  PTSUNNY   88  77  70 SE6       30.16F HX 100
HILTON HEAD IS NOT AVBL
GEORGETOWN     NOT AVBL
WALTERBORO     MOSUNNY   91  61  35 CALM      30.16F HX  91
ORANGEBURG     MOSUNNY   91  66  43 SE10      30.17F HX  93
BARNWELL       FAIR      90  70  51 E6        30.16F HX  95
AIKEN          PTSUNNY   90  72  55 SE6       30.20F HX  96
MANNING        FAIR      90  63  40 CALM      30.18F HX  90
KINGSTREE      NOT AVBL
COLUMBIA       MOSUNNY   91  64  40 MISG      30.16F HX  92
SUMTER         SUNNY     89  69  52 E7        30.17F HX  94
FLORENCE       MOSUNNY   88  68  51 VRB6      30.18F HX  91
MYRTLE BEACH   MOSUNNY   88  73  62 SE12      30.19F HX  96
N MYRTLE BEACH CLOUDY    84  71  65 SE8       30.19F

$$

GAZ063-065-086>088-099>101-113>116-118-119-134-136>141-150-301800-
...GEORGIA...

CITY           SKY/WX    TMP DP  RH WIND       PRES   REMARKS
SAVANNAH ARPT  MOSUNNY   90  70  51 SE12      30.16F HX  95
HUNTER AAF     MOSUNNY   88  75  65 E8        30.14F HX  97
FORT STEWART   MOSUNNY   91  72  53 E8        30.13F HX  98
STATESBORO     NOT AVBL
SYLVANIA       PTSUNNY   88  70  55 E5        30.16F HX  93
CLAXTON        NOT AVBL
THOMSON        PTSUNNY   88  79  73 NE5       30.20F HX 103
AUGUSTA-BUSH   MOSUNNY   91  70  49 S6        30.15F HX  96
AUGUSTA-DANIEL MOSUNNY   91  71  51 VRB6      30.17F HX  97
SWAINSBORO     PTSUNNY   93  70  46 SE7       30.15F HX  99
VIDALIA          N/A     90  72  55 SE6       30.15F HX  96
ALMA           CLOUDY    90  73  57 VRB7      30.15F HX  98
WAYCROSS       PTSUNNY   92  76  59 SE7       30.14F HX 104
JESUP            N/A     93  73  52 SE3       30.14F HX 102
BRUNSWICK      MOSUNNY   90  73  58 E8        30.15F HX  98
SAINT SIMONS   SUNNY     86  76  71 E8        30.15F HX  96

$$

SCZ027-028-034-036>038-045-046-048>050-GAZ119-141-301800-
...LAKE AND SUPPLEMENTAL COASTAL OBSERVATIONS...

STATION/POSITION TIME  TEMP    WIND        PRES    WAVE   SWELL
                       AIR SEA DIR/SP/G            HT/PER HT/PER/DIR
                 (UTC) (F)     (DEG/KT/KT) (MB)    (FT/S) (FT/S/D)
UPR LAKE MARION  NOT AVBL
WINYAH BAY       1600   83     100/  6     1022.0S
LAKE MURRAY      1600   84     230/  3/  3 1021.0F
ACE BASIN NERRS  1600   88     130/  3     1022.0S
FORT PULASKI     1700   83      80/ 10/ 12 1021.7F
SAPELO ISLAND    1600   88      90/  5     1022.0S

$$

ANZ835-935-AMZ111-154-330-350-352-354-374-450-454-472-301800-
...C-MAN AND BUOY OBSERVATIONS...

STATION/POSITION TIME  TEMP    WIND        PRES    WAVE   SWELL
                       AIR SEA DIR/SP/G            HT/PER HT/PER/DIR
                 (UTC) (F)     (DEG/KT/KT) (MB)    (FT/S) (FT/S/D)
FOLLY BEACH CMAN 1600   82     100/ 10/ 11 1022.6F
BUOY 41004       1700   81 83   40/  8/ 12 1021.7S   3/ 9   3/ 9
BUOY 41008       1700   83 85   80/ 10/ 12 1020.9F   2/ 8   2/100/ 8
5E ST. MARYS GA  1700      86                N/A     2/ 8
FRYING PAN BUOY  NOT AVBL
BUOY 41025       1700   80     160/  8/ 10 1023.2S   3/ 8   3/ 80/ 8
CAPE LOOKOUT NC  1600   80     220/  4/  5 1023.4F
BUOY 41002       1631   81 84  130/  2/  4 1023.4F   4/ 8   3/100/ 8
BUOY 41010       1700   83 86   CALM  /  2 1020.9F   3/ 8   3/130/ 8
BUOY 41012       NOT AVBL
ST AUGUSTINE FL  1700   81     100/  7/  7 1021.1F
CAPERS NEARSHORE 1600   84      90/  8/ 10   N/A
FRIPP NEARSHORE  NOT AVBL


$$


USA.gov is the U.S. government's official web portal to all federal, state and local government web resources and services.